User: anonymous   Login
Location: Unspecified
(0.0000°N, 0.0000°E)
Time: 15:31:02
(UTC+00:00)
Language:

SOMP - Orbit

View from above orbital plane
View from above orbital plane
View from above satellite
View from above satellite

Ground track
Ground track

The orbit data is extracted from the following two-line orbital elements,

1 39135U 13015F   17323.76856299 +.00002655 +00000-0 +14541-3 0  9995
2 39135 064.8705 094.7201 0033363 260.2572 099.4785 15.16134094252508
Epoch (UTC): 19 November 2017 18:26:43
Eccentricity: 0.0033363
inclination: 64.8705°
perigee height: 494 km
apogee height: 540 km
right ascension of ascending node: 94.7201°
argument of perigee: 260.2572°
revolutions per day: 15.16134094
mean anomaly at epoch: 99.4785°
orbit number at epoch: 25250

The dashed part of the orbit path shows where the satellite is in the earth's shadow,  

DLR